Location: Bouchavesnes-Bergen
(49.9859°N, 2.9203°E)
Time: 05:11:45
(UTC+00:00)

ADEOS - Pass Details

Date: 09 March 2021
Orbit: 793 x 794 km, 98.9° (Epoch: 11 April)

Event Time Altitude Azimuth Distance (km) Brightness Sun altitude
Rises 05:00:50 0° 14° (NNE) 3,309 7.1 -12.7°
Reaches altitude 10° 05:03:10 10° 14° (NNE) 2,375 6.3 -12.3°
Maximum altitude 05:08:26 81° 287° (WNW) 810 3.5 -11.5°
Drops below altitude 10° 05:13:38 10° 201° (SSW) 2,358 5.8 -10.6°
Sets 05:15:57 0° 201° (SSW) 3,283 6.5 -10.3°
